Location: Waco, TX
(31.5480°N, 97.1670°W)
Time: 22:58:10
(UTC-05:00)

ISS - Pass Details

Date: 21 April 2018
Orbit: 403 x 406 km, 51.6° (Epoch: 23 April)

Event Time Altitude Azimuth Distance (km) Brightness Sun altitude
Rises 09:51:42 0° 239° (WSW) 2,303 -0.4 36.8°
Reaches altitude 10° 09:53:51 10° 247° (WSW) 1,448 -1.3 37.3°
Maximum altitude 09:56:55 39° 318° (NW) 614 -2.9 37.9°
Drops below altitude 10° 10:00:01 10° 30° (NNE) 1,456 -0.7 38.6°
Sets 10:02:11 0° 38° (NE) 2,319 0.3 39.0°
